Surface/Precipitation History
02/21/2018 09:50  to  2/22/2018 09:50
Change End Date:
Date/Time
(MST)
Sf
Temp Chem Water Layer Surface Precipitation
Sfc Pvt Sub Frz Factor Pct Dpth DpthThk IcePct Cond Salin FI Type Intens Accum Rate
02/22/2018 09:40 Chemically Wet 16.3F - 20F 3F 95 50% 0.00 in - 0% 661 mhos 15000 - None None - -
02/22/2018 09:38 Chemically Wet 16.2F - 20F 3F 95 50% 0.00 in - 0% 661 mhos 15000 - None None - -
02/22/2018 09:28 Chemically Wet 14.7F - 20F 3F 95 50% 0.00 in - 0% 594 mhos 15000 - None None - -
02/22/2018 09:25 Chemically Wet 14.4F - 20F 3F 95 50% 0.00 in - 0% 594 mhos 15000 - None None - -
02/22/2018 09:18 Chemically Wet 13.8F - 20F 3F 95 50% 0.00 in - 0% 595 mhos 15000 - None None - -
02/22/2018 09:10 Chemically Wet 12.9F - 20F 3F 95 50% 0.00 in - 0% 540 mhos 15000 - None None - -
02/22/2018 09:08 Chemically Wet 12.9F - 20F 3F 95 50% 0.00 in - 0% 540 mhos 15000 - None None - -
02/22/2018 08:58 Chemically Wet 11.8F - 20F 3F 95 50% 0.00 in - 0% 540 mhos 15000 - None None - -
02/22/2018 08:55 Chemically Wet 11.3F - 20F 3F 95 50% 0.00 in - 0% 540 mhos 15000 - Yes - - -
02/22/2018 08:48 Chemically Wet 10.8F - 20F 3F 95 50% 0.00 in - 0% 496 mhos 15000 - None None - -
02/22/2018 08:40 Chemically Wet 9.9F - 20F 3F 90 50% 0.00 in - 0% 496 mhos 15000 - None None - -
02/22/2018 08:38 Chemically Wet 9.9F - 20F 3F 90 50% 0.00 in - 0% 496 mhos 15000 - None None - -
02/22/2018 08:27 Chemically Wet 9.1F - 20F 3F 80 50% 0.00 in - 0% 371 mhos 15000 - None None - -
02/22/2018 08:25 Chemically Wet 9.0F - 20F 3F 80 50% 0.00 in - 0% 371 mhos 15000 - Yes - - -
02/22/2018 08:17 Chemically Wet 8.4F - 20F 3F 80 50% 0.00 in - 0% 349 mhos 15000 - Yes - - -
Date/Time
(MST)
Sf
Temp Chem Water Layer Surface Precipitation
Sfc Pvt Sub Frz Factor Pct Dpth DpthThk IcePct Cond Salin FI Type Intens Accum Rate
02/22/2018 08:10 Chemically Wet 7.7F - 20F 3F 75 50% 0.00 in - 0% 349 mhos 15000 - None None - -
02/22/2018 08:07 Chemically Wet 7.5F - 20F 3F 75 50% 0.00 in - 0% 349 mhos 15000 - None None - -
02/22/2018 07:57 Chemically Wet 7.2F - 20F 3F 75 50% 0.00 in - 0% 330 mhos 15000 - Yes - - -
02/22/2018 07:55 Chemically Wet 6.8F - 20F 3F 75 50% 0.00 in - 0% 330 mhos 15000 - Yes - - -
02/22/2018 07:47 Chemically Wet 6.6F - 20F 3F 70 50% 0.00 in - 0% 330 mhos 15000 - None None - -
02/22/2018 07:40 Chemically Wet 6.3F - 20F 3F 70 50% 0.00 in - 0% 313 mhos 15000 - Yes - - -
02/22/2018 07:37 Chemically Wet 6.3F - 20F 3F 70 50% 0.00 in - 0% 313 mhos 15000 - Yes - - -
02/22/2018 07:27 Chemically Wet 6.3F - 20F 3F 70 50% 0.00 in - 0% 330 mhos 15000 - None None - -
02/22/2018 07:25 Chemically Wet 6.3F - 20F 3F 70 50% 0.00 in - 0% 330 mhos 15000 - Yes - - -
02/22/2018 07:17 Chemically Wet 6.3F - 20F 3F 70 50% 0.00 in - 0% 330 mhos 15000 - None None - -
02/22/2018 07:10 Chemically Wet 6.1F - 20F 3F 70 50% 0.00 in - 0% 330 mhos 15000 - Yes - - -
02/22/2018 07:07 Chemically Wet 6.1F - 20F 3F 70 50% 0.00 in - 0% 313 mhos 15000 - None None - -
02/22/2018 06:57 Chemically Wet 5.7F - 20F 3F 70 50% 0.00 in - 0% 313 mhos 15000 - Yes - - -
02/22/2018 06:55 Chemically Wet 5.7F - 20F 3F 70 50% 0.00 in - 0% 313 mhos 15000 - Yes - - -
02/22/2018 06:47 Chemically Wet 5.7F - 20F 3F 70 50% 0.00 in - 0% 313 mhos 15000 - Yes - - -
Date/Time
(MST)
Sf
Temp Chem Water Layer Surface Precipitation
Sfc Pvt Sub Frz Factor Pct Dpth DpthThk IcePct Cond Salin FI Type Intens Accum Rate
02/22/2018 06:40 Chemically Wet 5.7F - 20F 3F 70 50% 0.00 in - 0% 313 mhos 15000 - Yes - - -
02/22/2018 06:37 Chemically Wet 5.5F - 20F 3F 70 50% 0.00 in - 0% 313 mhos 15000 - Yes - - -
02/22/2018 06:27 Chemically Wet 5.7F - 20F 3F 70 50% 0.00 in - 0% 313 mhos 15000 - Yes - - -
02/22/2018 06:25 Chemically Wet 5.7F - 20F 3F 70 50% 0.00 in - 0% 313 mhos 15000 - None None - -
02/22/2018 06:17 Chemically Wet 5.7F - 20F 3F 70 50% 0.00 in - 0% 313 mhos 15000 - Yes - - -
02/22/2018 06:10 Chemically Wet 5.7F - 20F 3F 70 50% 0.00 in - 0% 313 mhos 15000 - Yes - - -
02/22/2018 06:07 Chemically Wet 5.7F - 20F 3F 70 50% 0.00 in - 0% 313 mhos 15000 - None None - -
02/22/2018 05:57 Chemically Wet 5.5F - 20F 3F 70 50% 0.00 in - 0% 313 mhos 15000 - None None - -
02/22/2018 05:55 Chemically Wet 5.5F - 20F 3F 70 50% 0.00 in - 0% 313 mhos 15000 - None None - -
02/22/2018 05:46 Chemically Wet 5.5F - 20F 3F 70 50% 0.00 in - 0% 313 mhos 15000 - None None - -
02/22/2018 05:40 Chemically Wet 5.5F - 20F 3F 70 50% 0.00 in - 0% 313 mhos 15000 - None None - -
02/22/2018 05:36 Chemically Wet 5.4F - 20F 3F 70 50% 0.00 in - 0% 313 mhos 15000 - None None - -
02/22/2018 05:26 Chemically Wet 5.4F - 20F 3F 70 50% 0.00 in - 0% 313 mhos 15000 - None None - -
02/22/2018 05:25 Chemically Wet 5.4F - 20F 3F 70 50% 0.00 in - 0% 297 mhos 15000 - None None - -
02/22/2018 05:16 Chemically Wet 5.4F - 20F 3F 70 50% 0.00 in - 0% 297 mhos 15000 - Yes - - -
Date/Time
(MST)
Sf
Temp Chem Water Layer Surface Precipitation
Sfc Pvt Sub Frz Factor Pct Dpth DpthThk IcePct Cond Salin FI Type Intens Accum Rate
02/22/2018 05:10 Chemically Wet 5.4F - 20F 3F 70 50% 0.00 in - 0% 297 mhos 15000 - None None - -
02/22/2018 05:06 Chemically Wet 5.4F - 20F 3F 70 50% 0.00 in - 0% 297 mhos 15000 - Yes - - -
02/22/2018 04:56 Chemically Wet 5.0F - 20F 3F 70 50% 0.00 in - 0% 297 mhos 15000 - None None - -
02/22/2018 04:55 Chemically Wet 5.0F - 20F 3F 70 50% 0.00 in - 0% 297 mhos 15000 - None None - -
02/22/2018 04:46 Chemically Wet 5.4F - 20F 3F 70 50% 0.00 in - 0% 297 mhos 15000 - None None - -
02/22/2018 04:40 Chemically Wet 5.2F - 20F 3F 70 50% 0.00 in - 0% 297 mhos 15000 - None None - -
02/22/2018 04:36 Chemically Wet 5.2F - 20F 3F 70 50% 0.00 in - 0% 297 mhos 15000 - None None - -
02/22/2018 04:26 Chemically Wet 5.5F - 20F 3F 70 50% 0.00 in - 0% 297 mhos 15000 - None None - -
02/22/2018 04:25 Chemically Wet 5.7F - 20F 3F 70 50% 0.00 in - 0% 297 mhos 15000 - None None - -
02/22/2018 04:16 Chemically Wet 6.3F - 20F 3F 75 50% 0.00 in - 0% 297 mhos 15000 - None None - -
02/22/2018 04:10 Chemically Wet 6.6F - 20F 3F 75 50% 0.00 in - 0% 297 mhos 15000 - None None - -
02/22/2018 04:06 Chemically Wet 6.6F - 20F 3F 80 50% 0.00 in - 0% 296 mhos 15000 - Yes - - -
02/22/2018 03:56 Chemically Wet 6.6F - 20F 3F 75 50% 0.00 in - 0% 282 mhos 15000 - None None - -
02/22/2018 03:55 Chemically Wet 6.8F - 20F 3F 75 50% 0.00 in - 0% 282 mhos 15000 - None None - -
02/22/2018 03:46 Chemically Wet 6.4F - 20F 3F 75 50% 0.00 in - 0% 258 mhos 15000 - None None - -
Date/Time
(MST)
Sf
Temp Chem Water Layer Surface Precipitation
Sfc Pvt Sub Frz Factor Pct Dpth DpthThk IcePct Cond Salin FI Type Intens Accum Rate
02/22/2018 03:40 Chemically Wet 6.3F - 20F 3F 75 50% 0.00 in - 0% 258 mhos 15000 - None None - -
02/22/2018 03:36 Chemically Wet 5.9F - 20F 3F 70 50% 0.00 in - 0% 247 mhos 15000 - None None - -
02/22/2018 03:26 Chemically Wet 6.1F - 20F 3F 75 50% 0.00 in - 0% 228 mhos 15000 - None None - -
02/22/2018 03:25 Chemically Wet 6.1F - 20F 3F 75 50% 0.00 in - 0% 228 mhos 15000 - None None - -
02/22/2018 03:16 Chemically Wet 6.3F - 20F 3F 75 50% 0.00 in - 0% 204 mhos 15000 - None None - -
02/22/2018 03:10 Chemically Wet 6.3F - 20F 3F 55 50% 0.00 in - 0% 191 mhos 15000 - None None - -
02/22/2018 03:05 Chemically Wet 6.4F - 21F 3F 55 50% 0.00 in - 0% 174 mhos 15000 - None None - -
02/22/2018 02:55 Chemically Wet 6.6F - 20F 3F 55 50% 0.00 in - 0% 144 mhos 15000 - None None - -
02/22/2018 02:55 Chemically Wet 6.6F - 20F 3F 55 50% 0.00 in - 0% 144 mhos 15000 - None None - -
02/22/2018 02:45 Chemically Wet 6.4F - 21F 3F 50 50% 0.00 in - 0% 115 mhos 15000 - None None - -
02/22/2018 02:40 Chemically Wet 6.4F - 21F 3F 50 50% 0.00 in - 0% 101 mhos 15000 - None None - -
02/22/2018 02:35 Chemically Wet 6.6F - 21F 3F 45 50% 0.00 in - 0% 89 mhos 15000 - None None - -
02/22/2018 02:25 Chemically Wet 6.4F - 21F 3F 35 50% 0.00 in - 0% 67 mhos 15000 - None None - -
02/22/2018 02:25 Chemically Wet 6.4F - 21F 3F 35 50% 0.00 in - 0% 67 mhos 15000 - None None - -
02/22/2018 02:15 Chemically Wet 6.3F - 21F 3F 20 50% 0.00 in - 0% 50 mhos 15000 - None None - -
Date/Time
(MST)
Sf
Temp Chem Water Layer Surface Precipitation
Sfc Pvt Sub Frz Factor Pct Dpth DpthThk IcePct Cond Salin FI Type Intens Accum Rate
02/22/2018 02:10 Chemically Wet 6.4F - 21F 8F 15 45% - - 52% 44 mhos 13445 - None None - -
02/22/2018 02:05 Chemically Wet 6.8F - 21F 10F 10 42% - - 54% 39 mhos 12647 - None None - -
02/22/2018 01:55 Chemically Wet 6.8F - 21F 13F 5 38% - - 59% 30 mhos 11384 - None None - -
02/22/2018 01:55 Chemically Wet 6.8F - 21F 13F 5 38% - - 59% 30 mhos 11384 - None None - -
02/22/2018 01:45 Chemically Wet 7.0F - 21F 17F 5 33% - - 64% 23 mhos 9864 - None None - -
02/22/2018 01:40 Chemically Wet 7.2F - 21F 19F 5 30% - - 67% 19 mhos 8975 - None None - -
02/22/2018 01:35 Chemically Wet 7.0F - 21F 22F 5 26% - - 72% 15 mhos 7702 - None None - -
02/22/2018 01:25 Chemically Wet 7.0F - 21F 24F 5 22% - - 76% 11 mhos 6534 - None None - -
02/22/2018 01:25 Chemically Wet 7.0F - 21F 24F 5 22% - - 76% 11 mhos 6534 - None None - -
02/22/2018 01:15 Chemically Wet 6.8F - 21F 25F 5 20% - - 79% 10 mhos 5909 - None None - -
02/22/2018 01:10 Chemically Wet 6.8F - 21F 25F 5 19% - - 80% 9 mhos 5636 - None None - -
02/22/2018 01:05 Chemically Wet 6.6F - 21F 26F 5 18% - - 81% 8 mhos 5309 - None None - -
02/22/2018 00:55 Chemically Wet 6.4F - 21F 27F 5 15% - - 84% 6 mhos 4514 - None None - -
02/22/2018 00:55 Chemically Wet 6.4F - 21F 27F 5 15% - - 84% 6 mhos 4514 - None None - -
02/22/2018 00:45 Ice Warning 5.7F - 21F 28F 5 14% - - 86% 5 mhos 4082 - None None - -
Date/Time
(MST)
Sf
Temp Chem Water Layer Surface Precipitation
Sfc Pvt Sub Frz Factor Pct Dpth DpthThk IcePct Cond Salin FI Type Intens Accum Rate
02/22/2018 00:40 Ice Warning 5.9F - 21F 28F 5 14% - - 86% 5 mhos 4069 - None None - -
02/22/2018 00:35 Ice Warning 6.1F - 21F 28F 5 13% - - 86% 5 mhos 3996 - None None - -
02/22/2018 00:25 Ice Warning 5.9F - 21F 28F 5 13% - - 86% 5 mhos 3834 - None None - -
02/22/2018 00:24 Ice Warning 5.9F - 21F 28F 5 13% - - 86% 5 mhos 3834 - None None - -
02/22/2018 00:14 Ice Warning 5.7F - 21F 28F 5 12% - - 87% 5 mhos 3739 - None None - -
02/22/2018 00:10 Ice Warning 5.7F - 21F 28F 5 12% - - 87% 5 mhos 3695 - None None - -
02/22/2018 00:04 Ice Warning 5.5F - 21F 28F 5 12% - - 87% 5 mhos 3629 - None None - -
02/21/2018 23:55 Ice Warning 5.5F - 21F 28F 5 12% - - 88% 4 mhos 3534 - None None - -
02/21/2018 23:54 Ice Warning 5.5F - 21F 28F 5 12% - - 88% 4 mhos 3534 - None None - -
02/21/2018 23:44 Ice Warning 5.7F - 21F 29F 5 11% - - 88% 4 mhos 3377 - None None - -
02/21/2018 23:40 Ice Warning 5.9F - 21F 29F 5 11% - - 88% 4 mhos 3308 - None None - -
02/21/2018 23:34 Ice Warning 6.4F - 21F 29F 5 11% - - 89% 4 mhos 3210 - None None - -
02/21/2018 23:25 Ice Warning 6.8F - 21F 29F 5 11% - - 89% 4 mhos 3168 - None None - -
02/21/2018 23:24 Ice Warning 6.6F - 21F 29F 5 11% - - 89% 4 mhos 3194 - None None - -
02/21/2018 23:14 Ice Warning 7.3F - 21F 29F 5 10% - - 89% 4 mhos 3051 - None None - -
Date/Time
(MST)
Sf
Temp Chem Water Layer Surface Precipitation
Sfc Pvt Sub Frz Factor Pct Dpth DpthThk IcePct Cond Salin FI Type Intens Accum Rate
02/21/2018 23:10 Ice Warning 7.5F - 21F 29F 5 10% - - 89% 4 mhos 3000 - None None - -
02/21/2018 23:04 Ice Warning 7.7F - 21F 29F 5 10% - - 89% 4 mhos 2928 - None None - -
02/21/2018 22:55 Ice Warning 7.5F - 21F 29F 5 10% - - 89% 4 mhos 2904 - None None - -
02/21/2018 22:54 Ice Warning 7.5F - 21F 29F 5 10% - - 89% 4 mhos 2863 - None None - -
02/21/2018 22:44 Ice Warning 7.9F - 21F 29F 5 9% - - 90% 4 mhos 2679 - None None - -
02/21/2018 22:40 Ice Warning 8.1F - 21F 29F 5 9% - - 90% 4 mhos 2620 - None None - -
02/21/2018 22:34 Ice Warning 8.4F - 21F 30F 5 8% - - 91% 4 mhos 2507 - None None - -
02/21/2018 22:25 Ice Warning 9.3F - 21F 30F 5 8% - - 91% 4 mhos 2427 - None None - -
02/21/2018 22:24 Ice Warning 9.5F - 21F 30F 5 8% - - 91% 4 mhos 2407 - None None - -
02/21/2018 22:14 Ice Warning 10.4F - 21F 30F 5 7% - - 91% 4 mhos 2189 - None None - -
02/21/2018 22:10 Ice Warning 10.4F - 21F 30F 5 7% - - 91% 4 mhos 2172 - None None - -
02/21/2018 22:04 Ice Warning 10.9F - 21F 30F 5 7% - - 92% 4 mhos 2097 - None None - -
02/21/2018 21:55 Ice Warning 11.1F - 21F 30F 5 7% - - 92% 4 mhos 2016 - None None - -
02/21/2018 21:54 Ice Warning 11.3F - 21F 30F 5 7% - - 92% 4 mhos 1990 - None None - -
02/21/2018 21:43 Ice Warning 11.3F - 21F 30F 5 6% - - 92% 4 mhos 1933 - None None - -
Date/Time
(MST)
Sf
Temp Chem Water Layer Surface Precipitation
Sfc Pvt Sub Frz Factor Pct Dpth DpthThk IcePct Cond Salin FI Type Intens Accum Rate
02/21/2018 21:40 Ice Warning 11.5F - 21F 30F 5 6% - - 92% 4 mhos 1898 - None None - -
02/21/2018 21:33 Ice Warning 11.5F - 21F 30F 5 6% - - 92% 4 mhos 1878 - None None - -
02/21/2018 21:25 Ice Warning 11.8F - 21F 30F 5 6% - - 93% 3 mhos 1771 - None None - -
02/21/2018 21:23 Ice Warning 11.7F - 21F 30F 5 6% - - 93% 3 mhos 1783 - None None - -
02/21/2018 21:13 Ice Warning 11.7F - 21F 30F 5 6% - - 93% 3 mhos 1727 - None None - -
02/21/2018 21:10 Ice Warning 11.8F - 21F 31F 10 6% - - 93% 3 mhos 1687 - None None - -
02/21/2018 21:03 Ice Warning 11.8F - 20F 31F 10 6% - - 93% 3 mhos 1662 - None None - -
02/21/2018 20:55 Ice Warning 11.3F - 20F 30F 10 6% - - 93% 3 mhos 1709 - None None - -
02/21/2018 20:53 Ice Warning 11.3F - 20F 30F 10 6% - - 93% 3 mhos 1708 - None None - -
02/21/2018 20:43 Ice Warning 10.9F - 20F 30F 5 6% - - 93% 3 mhos 1759 - None None - -
02/21/2018 20:40 Ice Warning 10.9F - 20F 30F 5 6% - - 93% 3 mhos 1763 - None None - -
02/21/2018 20:33 Ice Warning 10.8F - 21F 30F 15 6% - - 93% 3 mhos 1833 - None None - -
02/21/2018 20:25 Ice Warning 11.1F - 20F 30F 35 6% - - 93% 3 mhos 1723 - None None - -
02/21/2018 20:23 Ice Warning 11.1F - 20F 30F 40 6% - - 93% 3 mhos 1717 - None None - -
02/21/2018 20:13 Ice Warning 12.0F - 20F 31F 35 5% - - 93% 3 mhos 1602 - None None - -
Date/Time
(MST)
Sf
Temp Chem Water Layer Surface Precipitation
Sfc Pvt Sub Frz Factor Pct Dpth DpthThk IcePct Cond Salin FI Type Intens Accum Rate
02/21/2018 20:10 Ice Warning 11.8F - 20F 31F 45 5% - - 93% 3 mhos 1607 - None None - -
02/21/2018 20:03 Ice Warning 12.2F - 20F 31F 50 5% - - 93% 3 mhos 1575 - None None - -
02/21/2018 19:55 Ice Warning 12.4F - 20F 31F 55 5% - - 93% 3 mhos 1537 - None None - -
02/21/2018 19:53 Ice Warning 12.6F - 20F 31F 50 5% - - 94% 3 mhos 1517 - None None - -
02/21/2018 19:43 Ice Warning 13.1F - 20F 31F 50 5% - - 94% 3 mhos 1449 - None None - -
02/21/2018 19:40 Ice Warning 13.1F - 20F 31F 50 5% - - 94% 3 mhos 1453 - None None - -
02/21/2018 19:33 Ice Warning 13.5F - 20F 31F 60 5% - - 94% 3 mhos 1402 - None None - -
02/21/2018 19:25 Ice Warning 13.6F - 20F 31F 65 5% - - 94% 3 mhos 1388 - None None - -
02/21/2018 19:23 Ice Warning 13.8F - 20F 31F 70 5% - - 94% 3 mhos 1374 - None None - -
02/21/2018 19:12 Ice Warning 14.9F - 20F 31F 75 4% - - 94% 3 mhos 1269 - None None - -
02/21/2018 19:10 Error 15.1F - 20F - - - - - - 3 mhos 1236 - None None - -
02/21/2018 19:02 Ice Watch 15.6F - 20F - 70 - - - - 3 mhos 1177 - None None - -
02/21/2018 18:55 Ice Watch 15.8F - 20F - 70 - - - - 3 mhos 1164 - None None - -
02/21/2018 18:52 Ice Watch 15.8F - 20F - 70 - - - - 3 mhos 1162 - None None - -
02/21/2018 18:42 Ice Watch 15.6F - 20F - 75 - - - - 3 mhos 1192 - None None - -
Date/Time
(MST)
Sf
Temp Chem Water Layer Surface Precipitation
Sfc Pvt Sub Frz Factor Pct Dpth DpthThk IcePct Cond Salin FI Type Intens Accum Rate
02/21/2018 18:40 Ice Watch 15.6F - 20F - 75 - - - - 3 mhos 1194 - None None - -
02/21/2018 18:32 Ice Watch 15.8F - 20F - 80 - - - - 3 mhos 1230 - None None - -
02/21/2018 18:25 Ice Watch 16.3F - 20F - 85 - - - - 3 mhos 1189 - None None - -
02/21/2018 18:22 Ice Watch 16.7F - 20F - 85 - - - - 3 mhos 1148 - None None - -
02/21/2018 18:12 Ice Watch 17.6F - 20F - 85 - - - - 3 mhos 1080 - None None - -
02/21/2018 18:10 Ice Watch 17.6F - 20F - 85 - - - - 3 mhos 1082 - None None - -
02/21/2018 18:02 Ice Watch 18.0F - 20F - 85 - - - - 3 mhos 1075 - None None - -
02/21/2018 17:55 Ice Watch 18.1F - 19F - 90 - - - - 4 mhos 1131 - None None - -
02/21/2018 17:52 Ice Watch 18.3F - 19F - 95 - - - - 4 mhos 1113 - None None - -
02/21/2018 17:42 Ice Watch 19.6F - 19F - 95 - - - - 4 mhos 1074 - None None - -
02/21/2018 17:40 Ice Watch 20.1F - 19F - 95 - - - - 4 mhos 1019 - None None - -
02/21/2018 17:32 Ice Watch 22.1F - 19F - 95 - - - - 4 mhos 872 - None None - -
02/21/2018 17:25 Ice Watch 23.0F - 19F - 95 - - - - 4 mhos 824 - None None - -
02/21/2018 17:22 Ice Watch 23.7F - 19F - 95 - - - - 4 mhos 779 - None None - -
02/21/2018 17:12 Ice Watch 25.2F - 19F - 95 - - - - 4 mhos 704 - None None - -
Date/Time
(MST)
Sf
Temp Chem Water Layer Surface Precipitation
Sfc Pvt Sub Frz Factor Pct Dpth DpthThk IcePct Cond Salin FI Type Intens Accum Rate
02/21/2018 17:10 Ice Watch 25.3F - 19F - 95 - - - - 4 mhos 694 - None None - -
02/21/2018 17:02 Ice Watch 26.6F - 19F - 95 - - - - 4 mhos 644 - None None - -
02/21/2018 16:55 Ice Watch 27.5F - 19F - 95 - - - - 4 mhos 607 - None None - -
02/21/2018 16:52 Ice Watch 27.7F - 19F - 95 - - - - 4 mhos 596 - None None - -
02/21/2018 16:42 Ice Watch 28.8F - 19F - 95 - - - - 4 mhos 557 - None None - -
02/21/2018 16:40 Dry 28.9F - 19F - - - - - - 4 mhos 557 - None None - -
02/21/2018 16:31 Dry 29.3F - 19F - - - - - - 4 mhos 549 - None None - -
02/21/2018 16:25 Dry 30.2F - 19F - - - - - - 4 mhos 514 - None None - -
02/21/2018 16:21 Dry 30.7F - 19F - - - - - - 5 mhos 495 - None None - -
02/21/2018 16:11 Dry 31.8F - 19F - - - - - - 4 mhos 449 - None None - -
02/21/2018 16:10 Dry 31.6F - 19F - - - - - - 4 mhos 447 - None None - -
02/21/2018 16:01 Dry 32.4F - 19F - - - - - - 5 mhos 463 - None None - -
02/21/2018 15:55 Dry 32.5F - 19F - - - - - - 5 mhos 460 - None None - -
02/21/2018 15:51 Dry 32.7F - 19F - - - - - - 5 mhos 453 - None None - -
02/21/2018 15:41 Dry 33.4F - 18F - - - - - - 5 mhos 450 - None None - -
Date/Time
(MST)
Sf
Temp Chem Water Layer Surface Precipitation
Sfc Pvt Sub Frz Factor Pct Dpth DpthThk IcePct Cond Salin FI Type Intens Accum Rate
02/21/2018 15:40 Dry 33.4F - 18F - - - - - - 5 mhos 451 - None None - -
02/21/2018 15:31 Dry 34.2F - 18F - - - - - - 5 mhos 449 - None None - -
02/21/2018 15:25 Dry 34.7F - 18F - - - - - - 5 mhos 449 - None None - -
02/21/2018 15:21 Dry 34.7F - 18F - - - - - - 4 mhos 435 - None None - -
02/21/2018 15:11 Dry 35.1F - 18F - - - - - - 5 mhos 438 - None None - -
02/21/2018 15:10 Dry 35.4F - 18F - - - - - - 4 mhos 432 - None None - -
02/21/2018 15:01 Dry 36.1F - 18F - - - - - - 4 mhos 413 - None None - -
02/21/2018 14:55 Dry 36.1F - 18F - - - - - - 4 mhos 417 - None None - -
02/21/2018 14:51 Dry 36.1F - 18F - - - - - - 4 mhos 406 - None None - -
02/21/2018 14:41 Dry 36.1F - 18F - - - - - - 4 mhos 398 - None None - -
02/21/2018 14:40 Dry 36.1F - 18F - - - - - - 4 mhos 384 - None None - -
02/21/2018 14:31 Dry 36.1F - 18F - - - - - - 4 mhos 355 - None None - -
02/21/2018 14:25 Dry 36.3F - 18F - - - - - - 4 mhos 376 - None None - -
02/21/2018 14:21 Dry 36.5F - 18F - - - - - - 4 mhos 368 - None None - -
02/21/2018 14:11 Dry 36.7F - 18F - - - - - - 4 mhos 362 - None None - -
Date/Time
(MST)
Sf
Temp Chem Water Layer Surface Precipitation
Sfc Pvt Sub Frz Factor Pct Dpth DpthThk IcePct Cond Salin FI Type Intens Accum Rate
02/21/2018 14:10 Dry 36.9F - 18F - - - - - - 4 mhos 361 - None None - -
02/21/2018 14:01 Dry 36.1F - 18F - - - - - - 4 mhos 370 - None None - -
02/21/2018 13:55 Dry 35.6F - 18F - - - - - - 4 mhos 360 - None None - -
02/21/2018 13:51 Dry 35.6F - 18F - - - - - - 4 mhos 337 - None None - -
02/21/2018 13:41 Dry 34.2F - 17F - - - - - - 4 mhos 390 - None None - -
02/21/2018 13:40 Dry 34.5F - 18F - - - - - - 4 mhos 411 - None None - -
02/21/2018 13:31 Dry 33.4F - 18F - - - - - - 10 mhos 1032 - None None - -
02/21/2018 13:25 Dry 32.9F - 17F - - - - - - 31 mhos 3442 - None None - -
02/21/2018 13:20 Dry 32.9F - 17F - - - - - - 96 mhos 15000 - None None - -
02/21/2018 13:10 Wet 32.2F - 17F 3F 75 50% 0.00 in - 0% 197 mhos 15000 - None None - -
02/21/2018 13:10 Wet 32.2F - 17F 3F 75 50% 0.00 in - 0% 197 mhos 15000 - None None - -
02/21/2018 13:00 Chemically Wet 31.3F - 17F 3F 60 50% 0.00 in - 0% 330 mhos 15000 - None None - -
02/21/2018 12:55 Chemically Wet 31.3F - 17F 3F 50 50% 0.00 in - 0% 397 mhos 15000 - None None - -
02/21/2018 12:50 Chemically Wet 30.4F - 17F 3F 5 50% 0.70 in - 0% 380 mhos 15000 - None None - -
02/21/2018 12:40 Ice Watch 30.2F - 17F - 75 - - - - 211 mhos 15000 - None None - -
Date/Time
(MST)
Sf
Temp Chem Water Layer Surface Precipitation
Sfc Pvt Sub Frz Factor Pct Dpth DpthThk IcePct Cond Salin FI Type Intens Accum Rate
02/21/2018 12:40 Ice Watch 30.2F - 17F - 75 - - - - 211 mhos 15000 - None None - -
02/21/2018 12:30 Chemically Wet 28.9F - 17F 3F 75 50% 0.00 in - 0% 247 mhos 15000 - None None - -
02/21/2018 12:25 Chemically Wet 28.6F - 17F 3F 75 50% 0.00 in - 0% 269 mhos 15000 - None None - -
02/21/2018 12:20 Chemically Wet 27.7F - 17F 3F 65 50% 0.00 in - 0% 297 mhos 15000 - None None - -
02/21/2018 12:10 Chemically Wet 27.0F - 17F 3F 65 50% 0.00 in - 0% 350 mhos 15000 - None None - -
02/21/2018 12:10 Chemically Wet 27.0F - 17F 3F 65 50% 0.00 in - 0% 350 mhos 15000 - None None - -
02/21/2018 12:00 Chemically Wet 25.9F - 17F 3F 65 50% 0.00 in - 0% 372 mhos 15000 - None None - -
02/21/2018 11:55 Chemically Wet 25.5F - 17F 3F 65 50% 0.00 in - 0% 397 mhos 15000 - None None - -
02/21/2018 11:50 Chemically Wet 25.0F - 17F 3F 40 50% 0.00 in - 0% 397 mhos 15000 - None None - -
02/21/2018 11:40 Chemically Wet 23.9F - 17F 3F 55 50% 0.00 in - 0% 397 mhos 15000 - None None - -
02/21/2018 11:40 Chemically Wet 23.9F - 17F 3F 55 50% 0.00 in - 0% 397 mhos 15000 - None None - -
02/21/2018 11:30 Chemically Wet 23.2F - 17F 3F 30 50% 0.00 in - 0% 398 mhos 15000 - None None - -
02/21/2018 11:25 Chemically Wet 22.3F - 17F 3F 5 50% 0.70 in - 0% 380 mhos 15000 - None None - -
02/21/2018 11:20 Chemically Wet 21.6F - 17F 3F 5 50% 0.80 in - 0% 380 mhos 15000 - None None - -
02/21/2018 11:10 Chemically Wet 20.1F - 17F 3F 5 50% 0.70 in - 0% 380 mhos 15000 - None None - -
Date/Time
(MST)
Sf
Temp Chem Water Layer Surface Precipitation
Sfc Pvt Sub Frz Factor Pct Dpth DpthThk IcePct Cond Salin FI Type Intens Accum Rate
02/21/2018 11:10 Chemically Wet 20.1F - 18F 3F 5 50% 0.70 in - 0% 380 mhos 15000 - None None - -
02/21/2018 11:00 Chemically Wet 18.9F - 17F 3F 25 50% 0.00 in - 0% 373 mhos 15000 - None None - -
02/21/2018 10:55 Error 18.1F - 18F - - - - - - 373 mhos 15000 - None None - -
02/21/2018 10:49 Error 17.4F - 17F - - - - - - 356 mhos 15000 - None None - -
02/21/2018 10:40 Chemically Wet 16.2F - 18F 3F 5 50% 0.70 in - 0% 356 mhos 15000 - None None - -
02/21/2018 10:39 Chemically Wet 15.8F - 18F 3F 5 50% 0.70 in - 0% 356 mhos 15000 - None None - -
02/21/2018 10:29 Chemically Wet 14.4F - 17F 3F 15 50% 0.00 in - 0% 373 mhos 15000 - None None - -
02/21/2018 10:25 Chemically Wet 14.0F - 18F 3F 45 50% 0.00 in - 0% 350 mhos 15000 - None None - -
02/21/2018 10:19 Chemically Wet 12.9F - 18F 3F 75 50% 0.00 in - 0% 349 mhos 15000 - None None - -
02/21/2018 10:10 Chemically Wet 11.8F - 18F 3F 95 50% 0.00 in - 0% 371 mhos 15000 - None None - -
02/21/2018 10:09 Chemically Wet 11.3F - 18F 3F 95 50% 0.00 in - 0% 371 mhos 15000 - None None - -
02/21/2018 09:59 Chemically Wet 9.5F - 18F 3F 95 50% 0.00 in - 0% 329 mhos 15000 - None None - -
02/21/2018 09:55 Chemically Wet 8.6F - 18F 3F 90 50% 0.00 in - 0% 329 mhos 15000 - None None - -
Change End Date:

Copyright © 1998-2015 Vaisala, Inc.
All Rights Reserved
Send comments about the data to:
SCAN Web ® is a registered trademark of Vaisala, Inc.
SCAN Web Version 6.0